P/2000 S4 ( LINEAR-Spacewatch )

Japanese version
Home page
Updated on December 31, 2010

---------------------------------------------------------------------

* Profile

Discovery Date October 2, 2000
Magnitude 20.5 mag
Discoverer T. Gehrels (Kitt Peak)

* Orbital Elements

Epoch 2000 Oct. 23.0 TT = JDT 2451840.5
T 2000 Oct. 19.10189 TT                                 MPC
q   2.2654403            (2000.0)            P               Q
n   0.05184436     Peri.  172.32581     +0.97574429     +0.21438589
a   7.1230887      Node   174.64405     -0.21745649     +0.97250834
e   0.6819582      Incl.   28.32732     -0.02521419     -0.09091880
P  19.0
From 33 observations 2000 Sept. 1-Nov. 21, mean residual 0".6.

* Finding Charts

* Magnitudes Graph

        m1 = 13.5 + 5 log d + 15.0 log r

---------------------------------------------------------------------

The orbital elements are published on M.P.E.C. 2010-X76.
The charts are made with StellaNavigator Ver.2.0 for Windows (AstroArts / ASCII).
The magnitudes graphs are made with Comet for Windows.

---------------------------------------------------------------------

Copyright(C) Seiichi Yoshida (comet@aerith.net). All rights reserved.